Terminal Aerodrome Forecast
Issued by NWS State College, PA

Home | Current Version | Previous Version | Text Only | Print | Product List | Glossary On
Versions: 1 2 3 4 5 6 7 8 9 10 11 12 13 14 15 16 17 18 19 20 21 22 23 24 25 26 27 28 29 30 31 32 33 34 35 36 37 38 39 40 41 42 43 44 45 46 47 48 49 50
000
FTUS41 KCTP 292137 AAA
TAFIPT
TAF AMD
KIPT 292137Z 2922/3018 26004KT P6SM SKC
     FM300300 16006KT P6SM SCT080 OVC150
     FM300900 19008KT P6SM -SHSN BKN040
     FM301300 23010G19KT P6SM BKN050=

USA.gov is the U.S. government's official web portal to all federal, state and local government web resources and services.